Time,TemperatureF,DewpointF,PressureIn,WindDirection,WindDirectionDegrees,WindSpeedMPH,WindSpeedGustMPH,Humidity,HourlyPrecipIn,Conditions,Clouds,dailyrainin,SoftwareType,DateUTC
2013-07-04 00:01:00,70.6,44.4,30.16,WNW,293,2.7,4.3,39,0.00,,,0.00,WUHU216HW,2013-07-04 07:01:00,
2013-07-04 00:06:00,70.6,44.4,30.16,SW,225,3.4,6.9,39,0.00,,,0.00,WUHU216HW,2013-07-04 07:06:00,
2013-07-04 00:11:00,70.7,43.8,30.16,SW,225,4.7,6.9,38,0.00,,,0.00,WUHU216HW,2013-07-04 07:11:00,
2013-07-04 00:16:00,70.6,43.7,30.16,SW,225,2.2,5.6,38,0.00,,,0.00,WUHU216HW,2013-07-04 07:16:00,
2013-07-04 00:21:00,70.6,43.7,30.16,WSW,248,3.1,5.6,38,0.00,,,0.00,WUHU216HW,2013-07-04 07:21:00,
2013-07-04 00:26:00,70.6,43.7,30.16,WSW,248,2.5,6.0,38,0.00,,,0.00,WUHU216HW,2013-07-04 07:26:00,
2013-07-04 00:31:00,70.9,43.9,30.16,SSW,203,4.0,6.0,38,0.00,,,0.00,WUHU216HW,2013-07-04 07:31:00,
2013-07-04 00:36:00,70.7,43.8,30.16,SSW,203,3.8,6.0,38,0.00,,,0.00,WUHU216HW,2013-07-04 07:36:00,
2013-07-04 00:41:00,70.7,43.8,30.16,SSW,203,1.1,6.0,38,0.00,,,0.00,WUHU216HW,2013-07-04 07:41:00,
2013-07-04 00:46:00,70.6,43.7,30.16,SE,135,0.4,3.8,38,0.00,,,0.00,WUHU216HW,2013-07-04 07:46:00,
2013-07-04 00:51:00,70.2,43.3,30.16,ESE,113,0.2,3.1,38,0.00,,,0.00,WUHU216HW,2013-07-04 07:51:00,
2013-07-04 00:56:00,70.0,43.1,30.16,SSE,158,1.1,1.8,38,0.00,,,0.00,WUHU216HW,2013-07-04 07:56:00,
2013-07-04 01:01:00,69.7,42.9,30.16,WSW,248,1.3,1.3,38,0.00,,,0.00,WUHU216HW,2013-07-04 08:01:00,
2013-07-04 01:06:00,69.5,43.4,30.16,SW,225,2.5,4.3,39,0.00,,,0.00,WUHU216HW,2013-07-04 08:06:00,
2013-07-04 01:11:00,69.3,43.2,30.16,SSW,203,4.7,4.7,39,0.00,,,0.00,WUHU216HW,2013-07-04 08:11:00,
2013-07-04 01:16:00,69.3,43.2,30.15,SW,225,2.9,4.7,39,0.00,,,0.00,WUHU216HW,2013-07-04 08:16:00,
2013-07-04 01:21:00,69.3,42.5,30.15,South,180,1.8,5.4,38,0.00,,,0.00,WUHU216HW,2013-07-04 08:21:00,
2013-07-04 01:26:00,69.5,42.7,30.16,West,270,4.9,5.4,38,0.00,,,0.00,WUHU216HW,2013-07-04 08:26:00,
2013-07-04 01:31:00,69.7,42.9,30.16,SW,225,3.1,6.9,38,0.00,,,0.00,WUHU216HW,2013-07-04 08:31:00,
2013-07-04 01:36:00,69.8,42.2,30.15,SSW,203,1.8,6.9,37,0.00,,,0.00,WUHU216HW,2013-07-04 08:36:00,
2013-07-04 01:41:00,70.0,43.1,30.15,SSW,203,1.3,5.1,38,0.00,,,0.00,WUHU216HW,2013-07-04 08:41:00,
2013-07-04 01:46:00,70.0,43.1,30.15,SSW,203,2.5,5.6,38,0.00,,,0.00,WUHU216HW,2013-07-04 08:46:00,
2013-07-04 01:51:00,70.2,42.6,30.15,SSW,203,6.0,6.0,37,0.00,,,0.00,WUHU216HW,2013-07-04 08:51:00,
2013-07-04 01:56:00,70.4,42.8,30.15,WNW,293,2.9,7.6,37,0.00,,,0.00,WUHU216HW,2013-07-04 08:56:00,
2013-07-04 02:01:00,70.7,43.0,30.15,South,180,4.5,7.6,37,0.00,,,0.00,WUHU216HW,2013-07-04 09:01:00,
2013-07-04 02:06:00,70.9,43.2,30.15,NW,315,3.4,6.3,37,0.00,,,0.00,WUHU216HW,2013-07-04 09:06:00,
2013-07-04 02:11:00,71.1,43.4,30.15,SW,225,3.8,7.2,37,0.00,,,0.00,WUHU216HW,2013-07-04 09:11:00,
2013-07-04 02:16:00,71.3,43.6,30.15,SSE,158,1.1,7.2,37,0.00,,,0.00,WUHU216HW,2013-07-04 09:16:00,
2013-07-04 02:21:00,71.3,42.9,30.15,West,270,4.7,4.7,36,0.00,,,0.00,WUHU216HW,2013-07-04 09:21:00,
2013-07-04 02:26:00,71.6,42.4,30.15,SSE,158,1.6,4.7,35,0.00,,,0.00,WUHU216HW,2013-07-04 09:26:00,
2013-07-04 02:31:00,71.5,42.9,30.15,ESE,113,1.1,3.8,36,0.00,,,0.00,WUHU216HW,2013-07-04 09:31:00,
2013-07-04 02:36:00,71.3,43.6,30.15,SE,135,1.6,2.5,37,0.00,,,0.00,WUHU216HW,2013-07-04 09:36:00,
2013-07-04 02:41:00,71.1,43.4,30.15,SSE,158,1.1,2.5,37,0.00,,,0.00,WUHU216HW,2013-07-04 09:41:00,
2013-07-04 02:46:00,70.9,43.2,30.15,West,270,1.8,2.5,37,0.00,,,0.00,WUHU216HW,2013-07-04 09:46:00,
2013-07-04 02:51:00,70.9,43.2,30.14,SSW,203,3.6,4.3,37,0.00,,,0.00,WUHU216HW,2013-07-04 09:51:00,
2013-07-04 02:56:00,70.7,43.0,30.14,WSW,248,4.0,4.3,37,0.00,,,0.00,WUHU216HW,2013-07-04 09:56:00,
2013-07-04 03:01:00,70.9,43.2,30.14,WNW,293,3.6,4.7,37,0.00,,,0.00,WUHU216HW,2013-07-04 10:01:00,
2013-07-04 03:06:00,70.9,43.2,30.14,WSW,248,1.8,4.7,37,0.00,,,0.00,WUHU216HW,2013-07-04 10:06:00,
2013-07-04 03:11:00,70.7,43.0,30.14,South,180,1.1,4.3,37,0.00,,,0.00,WUHU216HW,2013-07-04 10:11:00,
2013-07-04 03:16:00,70.6,42.9,30.14,West,270,0.9,3.4,37,0.00,,,0.00,WUHU216HW,2013-07-04 10:16:00,
2013-07-04 03:21:00,70.6,42.9,30.14,WSW,248,0.4,3.4,37,0.00,,,0.00,WUHU216HW,2013-07-04 10:21:00,
2013-07-04 03:26:00,70.4,42.8,30.14,SSE,158,1.1,4.7,37,0.00,,,0.00,WUHU216HW,2013-07-04 10:26:00,
2013-07-04 03:31:00,70.4,42.8,30.14,West,270,5.1,5.1,37,0.00,,,0.00,WUHU216HW,2013-07-04 10:31:00,
2013-07-04 03:36:00,70.6,42.9,30.14,WSW,248,3.4,5.1,37,0.00,,,0.00,WUHU216HW,2013-07-04 10:36:00,
2013-07-04 03:41:00,70.7,43.0,30.14,WNW,293,2.9,5.1,37,0.00,,,0.00,WUHU216HW,2013-07-04 10:41:00,
2013-07-04 03:46:00,70.9,43.2,30.14,SSW,203,2.7,4.7,37,0.00,,,0.00,WUHU216HW,2013-07-04 10:46:00,
2013-07-04 03:51:00,70.9,43.2,30.14,WSW,248,0.7,5.4,37,0.00,,,0.00,WUHU216HW,2013-07-04 10:51:00,
2013-07-04 03:56:00,70.9,43.2,30.14,SW,225,3.4,5.4,37,0.00,,,0.00,WUHU216HW,2013-07-04 10:56:00,
2013-07-04 04:01:00,71.1,43.4,30.14,WSW,248,2.7,5.6,37,0.00,,,0.00,WUHU216HW,2013-07-04 11:01:00,
2013-07-04 04:06:00,71.1,43.4,30.14,WSW,248,2.9,5.6,37,0.00,,,0.00,WUHU216HW,2013-07-04 11:06:00,
2013-07-04 04:11:00,71.1,43.4,30.14,West,270,3.4,5.4,37,0.00,,,0.00,WUHU216HW,2013-07-04 11:11:00,
2013-07-04 04:16:00,71.3,43.6,30.14,WSW,248,2.7,5.4,37,0.00,,,0.00,WUHU216HW,2013-07-04 11:16:00,
2013-07-04 04:21:00,71.3,43.6,30.14,SW,225,3.4,4.9,37,0.00,,,0.00,WUHU216HW,2013-07-04 11:21:00,
2013-07-04 04:26:00,71.3,43.6,30.14,WNW,293,4.3,4.5,37,0.00,,,0.00,WUHU216HW,2013-07-04 11:26:00,
2013-07-04 04:31:00,71.3,43.6,30.14,SW,225,1.1,4.3,37,0.00,,,0.00,WUHU216HW,2013-07-04 11:31:00,
2013-07-04 04:36:00,71.3,43.6,30.14,SSE,158,2.2,4.3,37,0.00,,,0.00,WUHU216HW,2013-07-04 11:36:00,
2013-07-04 04:41:00,71.1,43.4,30.15,South,180,0.9,4.3,37,0.00,,,0.00,WUHU216HW,2013-07-04 11:41:00,
2013-07-04 04:46:00,70.9,43.2,30.15,SSE,158,1.8,4.7,37,0.00,,,0.00,WUHU216HW,2013-07-04 11:46:00,
2013-07-04 04:51:00,70.9,43.9,30.15,SSE,158,0.7,4.7,38,0.00,,,0.00,WUHU216HW,2013-07-04 11:51:00,
2013-07-04 04:56:00,70.7,43.8,30.15,ESE,113,0.2,3.8,38,0.00,,,0.00,WUHU216HW,2013-07-04 11:56:00,
2013-07-04 05:01:00,70.6,43.7,30.15,NE,45,0.0,3.8,38,0.00,,,0.00,WUHU216HW,2013-07-04 12:01:00,
2013-07-04 05:06:00,70.6,43.7,30.15,East,90,0.4,3.4,38,0.00,,,0.00,WUHU216HW,2013-07-04 12:06:00,
2013-07-04 05:11:00,70.4,43.5,30.15,West,270,2.5,6.7,38,0.00,,,0.00,WUHU216HW,2013-07-04 12:11:00,
2013-07-04 05:16:00,70.4,43.5,30.15,South,180,1.8,7.4,38,0.00,,,0.00,WUHU216HW,2013-07-04 12:16:00,
2013-07-04 05:21:00,70.2,43.3,30.16,SSW,203,2.9,7.4,38,0.00,,,0.00,WUHU216HW,2013-07-04 12:21:00,
2013-07-04 05:26:00,70.4,44.2,30.16,West,270,0.7,5.1,39,0.00,,,0.00,WUHU216HW,2013-07-04 12:26:00,
2013-07-04 05:31:00,70.4,43.5,30.16,WSW,248,0.0,5.4,38,0.00,,,0.00,WUHU216HW,2013-07-04 12:31:00,
2013-07-04 05:36:00,70.2,44.0,30.16,ESE,113,0.2,5.4,39,0.00,,,0.00,WUHU216HW,2013-07-04 12:36:00,
2013-07-04 05:41:00,70.2,44.0,30.16,East,90,0.0,2.5,39,0.00,,,0.00,WUHU216HW,2013-07-04 12:41:00,
2013-07-04 05:46:00,70.2,44.0,30.16,SSE,158,2.0,2.0,39,0.00,,,0.00,WUHU216HW,2013-07-04 12:46:00,
2013-07-04 05:51:00,70.2,44.8,30.16,SE,135,0.0,2.0,40,0.00,,,0.00,WUHU216HW,2013-07-04 12:51:00,
2013-07-04 05:56:00,69.8,44.5,30.16,ESE,113,1.8,1.8,40,0.00,,,0.00,WUHU216HW,2013-07-04 12:56:00,
2013-07-04 06:01:00,69.8,44.5,30.16,East,90,1.3,1.8,40,0.00,,,0.00,WUHU216HW,2013-07-04 13:01:00,
2013-07-04 06:06:00,69.8,44.5,30.16,SE,135,1.1,2.0,40,0.00,,,0.00,WUHU216HW,2013-07-04 13:06:00,
2013-07-04 06:11:00,70.0,44.7,30.16,SSE,158,0.9,2.2,40,0.00,,,0.00,WUHU216HW,2013-07-04 13:11:00,
2013-07-04 06:16:00,70.2,44.8,30.17,SSE,158,1.6,3.4,40,0.00,,,0.00,WUHU216HW,2013-07-04 13:16:00,
2013-07-04 06:21:00,70.2,44.8,30.17,SSW,203,2.7,4.5,40,0.00,,,0.00,WUHU216HW,2013-07-04 13:21:00,
2013-07-04 06:26:00,70.4,44.9,30.17,SSE,158,1.8,4.5,40,0.00,,,0.00,WUHU216HW,2013-07-04 13:26:00,
2013-07-04 06:31:00,70.6,45.1,30.17,SSE,158,4.3,4.3,40,0.00,,,0.00,WUHU216HW,2013-07-04 13:31:00,
2013-07-04 06:36:00,70.9,45.5,30.17,SW,225,1.3,4.9,40,0.00,,,0.00,WUHU216HW,2013-07-04 13:36:00,
2013-07-04 06:41:00,71.3,45.7,30.18,SSE,158,1.3,4.9,40,0.00,,,0.00,WUHU216HW,2013-07-04 13:41:00,
2013-07-04 06:46:00,71.6,46.1,30.18,West,270,0.4,4.7,40,0.00,,,0.00,WUHU216HW,2013-07-04 13:46:00,
2013-07-04 06:51:00,72.0,46.5,30.18,SE,135,3.4,5.4,40,0.00,,,0.00,WUHU216HW,2013-07-04 13:51:00,
2013-07-04 06:56:00,72.4,46.0,30.18,NE,45,0.0,5.4,39,0.00,,,0.00,WUHU216HW,2013-07-04 13:56:00,
2013-07-04 07:01:00,72.5,46.2,30.18,SSW,203,1.1,4.0,39,0.00,,,0.00,WUHU216HW,2013-07-04 14:01:00,
2013-07-04 07:06:00,72.7,46.3,30.18,South,180,3.4,6.9,39,0.00,,,0.00,WUHU216HW,2013-07-04 14:06:00,
2013-07-04 07:11:00,73.1,46.6,30.18,SSW,203,2.0,6.9,39,0.00,,,0.00,WUHU216HW,2013-07-04 14:11:00,
2013-07-04 07:16:00,73.4,47.0,30.18,SSW,203,5.4,5.8,39,0.00,,,0.00,WUHU216HW,2013-07-04 14:16:00,
2013-07-04 07:21:00,73.6,46.4,30.18,WSW,248,3.1,5.8,38,0.00,,,0.00,WUHU216HW,2013-07-04 14:21:00,
2013-07-04 07:26:00,74.0,46.7,30.19,SSW,203,3.4,5.4,38,0.00,,,0.00,WUHU216HW,2013-07-04 14:26:00,
2013-07-04 07:31:00,74.2,46.8,30.19,North,0,2.0,3.8,38,0.00,,,0.00,WUHU216HW,2013-07-04 14:31:00,
2013-07-04 07:36:00,74.5,47.2,30.19,South,180,4.0,4.0,38,0.00,,,0.00,WUHU216HW,2013-07-04 14:36:00,
2013-07-04 07:41:00,74.9,47.5,30.19,WNW,293,7.8,9.6,38,0.00,,,0.00,WUHU216HW,2013-07-04 14:41:00,
2013-07-04 07:46:00,75.1,46.9,30.19,WNW,293,1.8,9.6,37,0.00,,,0.00,WUHU216HW,2013-07-04 14:46:00,
2013-07-04 07:51:00,75.6,47.3,30.19,SW,225,6.7,7.8,37,0.00,,,0.00,WUHU216HW,2013-07-04 14:51:00,
2013-07-04 07:56:00,76.1,47.9,30.19,WSW,248,4.3,10.5,37,0.00,,,0.00,WUHU216HW,2013-07-04 14:56:00,
2013-07-04 08:01:00,77.0,48.7,30.19,WSW,248,1.8,10.5,37,0.00,,,0.00,WUHU216HW,2013-07-04 15:01:00,
2013-07-04 08:06:00,77.8,47.8,30.19,West,270,6.7,7.8,35,0.00,,,0.00,WUHU216HW,2013-07-04 15:06:00,
2013-07-04 08:11:00,78.5,48.4,30.19,WSW,248,5.1,7.8,35,0.00,,,0.00,WUHU216HW,2013-07-04 15:11:00,
2013-07-04 08:16:00,79.6,48.6,30.19,WSW,248,9.4,9.4,34,0.00,,,0.00,WUHU216HW,2013-07-04 15:16:00,
2013-07-04 08:21:00,80.1,48.2,30.19,WNW,293,7.4,9.4,33,0.00,,,0.00,WUHU216HW,2013-07-04 15:21:00,
2013-07-04 08:26:00,80.5,47.8,30.19,WNW,293,3.8,8.5,32,0.00,,,0.00,WUHU216HW,2013-07-04 15:26:00,
2013-07-04 08:31:00,82.4,48.7,30.19,WNW,293,4.3,8.3,31,0.00,,,0.00,WUHU216HW,2013-07-04 15:31:00,
2013-07-04 08:36:00,85.1,49.2,30.20,SW,225,11.2,11.2,29,0.00,,,0.00,WUHU216HW,2013-07-04 15:36:00,
2013-07-04 08:41:00,86.4,49.2,30.19,West,270,6.7,11.2,28,0.00,,,0.00,WUHU216HW,2013-07-04 15:41:00,
2013-07-04 08:46:00,86.8,49.6,30.19,SSW,203,3.8,11.2,28,0.00,,,0.00,WUHU216HW,2013-07-04 15:46:00,
2013-07-04 08:51:00,86.4,49.2,30.19,WNW,293,4.0,8.5,28,0.00,,,0.00,WUHU216HW,2013-07-04 15:51:00,
2013-07-04 08:56:00,85.7,48.6,30.19,South,180,3.4,9.2,28,0.00,,,0.00,WUHU216HW,2013-07-04 15:56:00,
2013-07-04 09:01:00,85.3,48.3,30.19,WSW,248,4.7,9.2,28,0.00,,,0.00,WUHU216HW,2013-07-04 16:01:00,
2013-07-04 09:06:00,85.3,48.3,30.19,West,270,4.7,10.7,28,0.00,,,0.00,WUHU216HW,2013-07-04 16:06:00,
2013-07-04 09:11:00,85.7,48.6,30.19,SW,225,7.8,10.7,28,0.00,,,0.00,WUHU216HW,2013-07-04 16:11:00,
2013-07-04 09:16:00,85.5,46.4,30.19,West,270,5.6,10.5,26,0.00,,,0.00,WUHU216HW,2013-07-04 16:16:00,
2013-07-04 09:21:00,85.5,48.5,30.19,NW,315,4.3,10.5,28,0.00,,,0.00,WUHU216HW,2013-07-04 16:21:00,
2013-07-04 09:26:00,85.7,47.6,30.19,WNW,293,4.0,10.3,27,0.00,,,0.00,WUHU216HW,2013-07-04 16:26:00,
2013-07-04 09:31:00,85.9,48.8,30.19,North,0,4.0,9.8,28,0.00,,,0.00,WUHU216HW,2013-07-04 16:31:00,
2013-07-04 09:36:00,86.0,49.0,30.19,SSE,158,6.7,11.9,28,0.00,,,0.00,WUHU216HW,2013-07-04 16:36:00,
2013-07-04 09:41:00,86.8,47.4,30.19,SW,225,4.0,11.9,26,0.00,,,0.00,WUHU216HW,2013-07-04 16:41:00,
2013-07-04 09:46:00,86.9,47.5,30.20,SW,225,6.7,12.8,26,0.00,,,0.00,WUHU216HW,2013-07-04 16:46:00,
2013-07-04 09:51:00,87.1,46.6,30.20,WSW,248,1.8,15.4,25,0.00,,,0.00,WUHU216HW,2013-07-04 16:51:00,
2013-07-04 09:56:00,86.8,47.4,30.20,SSW,203,7.8,15.4,26,0.00,,,0.00,WUHU216HW,2013-07-04 16:56:00,
2013-07-04 10:01:00,86.2,47.0,30.19,West,270,4.7,11.0,26,0.00,,,0.00,WUHU216HW,2013-07-04 17:01:00,
2013-07-04 10:06:00,86.2,47.0,30.19,SSE,158,6.9,11.0,26,0.00,,,0.00,WUHU216HW,2013-07-04 17:06:00,
2013-07-04 10:11:00,86.0,47.9,30.20,SE,135,8.7,11.4,27,0.00,,,0.00,WUHU216HW,2013-07-04 17:11:00,
2013-07-04 10:16:00,86.2,49.2,30.19,WSW,248,3.4,14.5,28,0.00,,,0.00,WUHU216HW,2013-07-04 17:16:00,
2013-07-04 10:21:00,86.6,49.4,30.19,WNW,293,2.9,14.5,28,0.00,,,0.00,WUHU216HW,2013-07-04 17:21:00,
2013-07-04 10:26:00,86.6,49.4,30.20,WSW,248,8.3,11.2,28,0.00,,,0.00,WUHU216HW,2013-07-04 17:26:00,
2013-07-04 10:31:00,87.1,49.9,30.19,SE,135,7.2,11.2,28,0.00,,,0.00,WUHU216HW,2013-07-04 17:31:00,
2013-07-04 10:36:00,87.3,49.0,30.19,WSW,248,7.4,10.5,27,0.00,,,0.00,WUHU216HW,2013-07-04 17:36:00,
2013-07-04 10:41:00,87.5,48.0,30.19,West,270,8.5,10.5,26,0.00,,,0.00,WUHU216HW,2013-07-04 17:41:00,
2013-07-04 10:46:00,87.1,47.7,30.19,WSW,248,5.6,11.2,26,0.00,,,0.00,WUHU216HW,2013-07-04 17:46:00,
2013-07-04 10:51:00,87.5,49.1,30.19,South,180,10.1,11.6,27,0.00,,,0.00,WUHU216HW,2013-07-04 17:51:00,
2013-07-04 10:56:00,88.2,48.6,30.19,WSW,248,6.5,11.6,26,0.00,,,0.00,WUHU216HW,2013-07-04 17:56:00,
2013-07-04 11:01:00,88.2,48.6,30.19,West,270,6.7,10.1,26,0.00,,,0.00,WUHU216HW,2013-07-04 18:01:00,
2013-07-04 11:06:00,88.2,48.6,30.19,SW,225,4.9,15.0,26,0.00,,,0.00,WUHU216HW,2013-07-04 18:06:00,
2013-07-04 11:11:00,88.2,48.6,30.19,SW,225,5.4,15.0,26,0.00,,,0.00,WUHU216HW,2013-07-04 18:11:00,
2013-07-04 11:16:00,89.1,49.4,30.19,WSW,248,10.1,13.4,26,0.00,,,0.00,WUHU216HW,2013-07-04 18:16:00,
2013-07-04 11:21:00,89.3,49.6,30.19,WSW,248,4.0,12.1,26,0.00,,,0.00,WUHU216HW,2013-07-04 18:21:00,
2013-07-04 11:26:00,89.3,48.5,30.20,SW,225,8.9,11.0,25,0.00,,,0.00,WUHU216HW,2013-07-04 18:26:00,
2013-07-04 11:31:00,89.3,48.5,30.20,WSW,248,6.9,10.1,25,0.00,,,0.00,WUHU216HW,2013-07-04 18:31:00,
2013-07-04 11:36:00,89.6,48.8,30.19,SSE,158,6.9,13.4,25,0.00,,,0.00,WUHU216HW,2013-07-04 18:36:00,
2013-07-04 11:41:00,89.6,48.8,30.19,South,180,3.8,13.6,25,0.00,,,0.00,WUHU216HW,2013-07-04 18:41:00,
2013-07-04 11:46:00,90.0,49.1,30.19,SW,225,5.4,13.6,25,0.00,,,0.00,WUHU216HW,2013-07-04 18:46:00,
2013-07-04 11:51:00,89.8,49.0,30.19,WSW,248,9.8,15.7,25,0.00,,,0.00,WUHU216HW,2013-07-04 18:51:00,
2013-07-04 11:56:00,90.2,49.2,30.19,WSW,248,6.3,15.7,25,0.00,,,0.00,WUHU216HW,2013-07-04 18:56:00,
2013-07-04 12:01:00,90.9,48.8,30.19,NW,315,10.3,11.4,24,0.00,,,0.00,WUHU216HW,2013-07-04 19:01:00,
2013-07-04 12:06:00,91.3,49.1,30.19,WSW,248,10.3,13.4,24,0.00,,,0.00,WUHU216HW,2013-07-04 19:06:00,
2013-07-04 12:11:00,90.9,48.8,30.19,West,270,5.6,13.4,24,0.00,,,0.00,WUHU216HW,2013-07-04 19:11:00,
2013-07-04 12:16:00,89.8,49.0,30.19,West,270,10.5,11.6,25,0.00,,,0.00,WUHU216HW,2013-07-04 19:16:00,
2013-07-04 12:21:00,88.6,49.0,30.19,South,180,3.1,12.8,26,0.00,,,0.00,WUHU216HW,2013-07-04 19:21:00,
2013-07-04 12:26:00,87.5,47.0,30.19,WSW,248,7.4,12.8,25,0.00,,,0.00,WUHU216HW,2013-07-04 19:26:00,
2013-07-04 12:31:00,86.8,47.4,30.19,NNW,338,5.4,11.4,26,0.00,,,0.00,WUHU216HW,2013-07-04 19:31:00,
2013-07-04 12:36:00,86.0,46.8,30.19,SW,225,3.4,9.2,26,0.00,,,0.00,WUHU216HW,2013-07-04 19:36:00,
2013-07-04 12:41:00,84.8,47.9,30.19,WNW,293,7.2,9.2,28,0.00,,,0.00,WUHU216HW,2013-07-04 19:41:00,
2013-07-04 12:46:00,84.1,48.2,30.19,SSE,158,4.5,8.5,29,0.00,,,0.00,WUHU216HW,2013-07-04 19:46:00,
2013-07-04 12:51:00,83.7,48.0,30.19,WSW,248,6.9,8.5,29,0.00,,,0.00,WUHU216HW,2013-07-04 19:51:00,
2013-07-04 12:56:00,83.5,47.8,30.20,WSW,248,3.4,7.6,29,0.00,,,0.00,WUHU216HW,2013-07-04 19:56:00,
2013-07-04 13:01:00,83.3,48.7,30.20,South,180,0.4,6.9,30,0.00,,,0.00,WUHU216HW,2013-07-04 20:01:00,
2013-07-04 13:06:00,83.2,48.5,30.20,SSW,203,5.1,5.6,30,0.00,,,0.00,WUHU216HW,2013-07-04 20:06:00,
2013-07-04 13:11:00,83.0,48.3,30.20,South,180,5.8,5.8,30,0.00,,,0.00,WUHU216HW,2013-07-04 20:11:00,
2013-07-04 13:16:00,82.8,48.3,30.20,South,180,0.2,6.3,30,0.00,,,0.00,WUHU216HW,2013-07-04 20:16:00,
2013-07-04 13:21:00,82.6,48.1,30.19,SSE,158,3.4,6.3,30,0.00,,,0.00,WUHU216HW,2013-07-04 20:21:00,
2013-07-04 13:26:00,82.4,47.9,30.19,South,180,0.4,6.0,30,0.00,,,0.00,WUHU216HW,2013-07-04 20:26:00,
2013-07-04 13:31:00,82.4,47.9,30.19,ESE,113,2.0,5.4,30,0.00,,,0.00,WUHU216HW,2013-07-04 20:31:00,
2013-07-04 13:36:00,82.3,47.7,30.19,South,180,1.6,4.7,30,0.00,,,0.00,WUHU216HW,2013-07-04 20:36:00,
2013-07-04 13:41:00,82.3,47.7,30.19,SSE,158,3.1,3.1,30,0.00,,,0.00,WUHU216HW,2013-07-04 20:41:00,
2013-07-04 13:46:00,82.1,48.4,30.19,SE,135,2.0,5.4,31,0.00,,,0.00,WUHU216HW,2013-07-04 20:46:00,
2013-07-04 13:51:00,82.1,48.4,30.19,SE,135,3.6,5.4,31,0.00,,,0.00,WUHU216HW,2013-07-04 20:51:00,
2013-07-04 13:56:00,81.9,48.3,30.19,SE,135,2.7,5.6,31,0.00,,,0.00,WUHU216HW,2013-07-04 20:56:00,
2013-07-04 14:01:00,81.7,48.9,30.19,South,180,4.5,5.6,32,0.00,,,0.00,WUHU216HW,2013-07-04 21:01:00,
2013-07-04 14:06:00,81.5,48.7,30.19,South,180,4.7,6.3,32,0.00,,,0.00,WUHU216HW,2013-07-04 21:06:00,
2013-07-04 14:11:00,81.5,48.7,30.19,SE,135,3.1,7.4,32,0.00,,,0.00,WUHU216HW,2013-07-04 21:11:00,
2013-07-04 14:16:00,81.5,48.7,30.19,SSE,158,2.9,7.8,32,0.00,,,0.00,WUHU216HW,2013-07-04 21:16:00,
2013-07-04 14:21:00,81.5,48.7,30.18,SSE,158,5.4,7.8,32,0.00,,,0.00,WUHU216HW,2013-07-04 21:21:00,
2013-07-04 14:26:00,81.5,48.7,30.18,SE,135,6.0,7.6,32,0.00,,,0.00,WUHU216HW,2013-07-04 21:26:00,
2013-07-04 14:31:00,81.5,48.7,30.17,South,180,3.4,7.6,32,0.00,,,0.00,WUHU216HW,2013-07-04 21:31:00,
2013-07-04 14:36:00,81.7,48.9,30.17,SSE,158,2.5,6.3,32,0.00,,,0.00,WUHU216HW,2013-07-04 21:36:00,
2013-07-04 14:41:00,82.1,49.1,30.17,WSW,248,1.8,7.8,32,0.00,,,0.00,WUHU216HW,2013-07-04 21:41:00,
2013-07-04 14:46:00,82.6,49.6,30.16,SW,225,5.1,10.5,32,0.00,,,0.00,WUHU216HW,2013-07-04 21:46:00,
2013-07-04 14:51:00,82.8,49.8,30.16,SSW,203,3.1,10.5,32,0.00,,,0.00,WUHU216HW,2013-07-04 21:51:00,
2013-07-04 14:56:00,82.8,49.8,30.16,South,180,2.7,8.9,32,0.00,,,0.00,WUHU216HW,2013-07-04 21:56:00,
2013-07-04 15:01:00,83.0,49.1,30.16,WSW,248,2.5,8.5,31,0.00,,,0.00,WUHU216HW,2013-07-04 22:01:00,
2013-07-04 15:06:00,83.2,49.3,30.16,WSW,248,6.5,8.5,31,0.00,,,0.00,WUHU216HW,2013-07-04 22:06:00,
2013-07-04 15:11:00,83.2,49.3,30.15,SW,225,3.4,7.4,31,0.00,,,0.00,WUHU216HW,2013-07-04 22:11:00,
2013-07-04 15:16:00,83.2,49.3,30.15,SSE,158,6.9,6.9,31,0.00,,,0.00,WUHU216HW,2013-07-04 22:16:00,
2013-07-04 15:21:00,83.5,49.7,30.15,South,180,6.9,11.0,31,0.00,,,0.00,WUHU216HW,2013-07-04 22:21:00,
2013-07-04 15:26:00,83.3,49.5,30.15,WSW,248,3.4,11.0,31,0.00,,,0.00,WUHU216HW,2013-07-04 22:26:00,
2013-07-04 15:31:00,83.3,48.7,30.15,SW,225,3.4,9.2,30,0.00,,,0.00,WUHU216HW,2013-07-04 22:31:00,
2013-07-04 15:36:00,83.2,48.5,30.15,SSE,158,0.4,9.2,30,0.00,,,0.00,WUHU216HW,2013-07-04 22:36:00,
2013-07-04 15:41:00,83.0,49.1,30.16,SSW,203,1.1,6.3,31,0.00,,,0.00,WUHU216HW,2013-07-04 22:41:00,
2013-07-04 15:46:00,82.8,50.6,30.16,WSW,248,0.4,4.5,33,0.00,,,0.00,WUHU216HW,2013-07-04 22:46:00,
2013-07-04 15:51:00,82.6,51.2,30.16,SW,225,1.6,2.9,34,0.00,,,0.00,WUHU216HW,2013-07-04 22:51:00,
2013-07-04 15:56:00,82.3,53.3,30.15,North,0,2.0,3.4,37,0.00,,,0.00,WUHU216HW,2013-07-04 22:56:00,
2013-07-04 16:01:00,81.7,53.6,30.15,NNE,23,2.7,4.3,38,0.00,,,0.00,WUHU216HW,2013-07-04 23:01:00,
2013-07-04 16:06:00,81.0,52.9,30.15,NNE,23,2.2,4.3,38,0.00,,,0.00,WUHU216HW,2013-07-04 23:06:00,
2013-07-04 16:11:00,80.3,52.3,30.15,NNE,23,1.1,4.3,38,0.00,,,0.00,WUHU216HW,2013-07-04 23:11:00,
2013-07-04 16:16:00,79.9,52.7,30.15,North,0,3.4,3.6,39,0.00,,,0.00,WUHU216HW,2013-07-04 23:16:00,
2013-07-04 16:21:00,78.8,51.8,30.16,NE,45,1.1,4.7,39,0.00,,,0.00,WUHU216HW,2013-07-04 23:21:00,
2013-07-04 16:26:00,78.1,51.9,30.15,NNE,23,3.6,4.7,40,0.00,,,0.00,WUHU216HW,2013-07-04 23:26:00,
2013-07-04 16:31:00,77.4,52.5,30.16,NE,45,4.5,6.5,42,0.00,,,0.00,WUHU216HW,2013-07-04 23:31:00,
2013-07-04 16:36:00,76.3,53.4,30.16,NE,45,7.2,7.6,45,0.00,,,0.00,WUHU216HW,2013-07-04 23:36:00,
2013-07-04 16:41:00,75.2,52.4,30.16,ENE,68,3.4,7.6,45,0.00,,,0.00,WUHU216HW,2013-07-04 23:41:00,
2013-07-04 16:46:00,74.3,53.4,30.17,North,0,3.8,7.6,48,0.00,,,0.00,WUHU216HW,2013-07-04 23:46:00,
2013-07-04 16:51:00,73.8,53.4,30.17,North,0,4.0,8.5,49,0.00,,,0.00,WUHU216HW,2013-07-04 23:51:00,
2013-07-04 16:56:00,73.4,54.6,30.17,NNW,338,3.4,8.5,52,0.02,,,0.02,WUHU216HW,2013-07-04 23:56:00,
2013-07-04 17:01:00,72.5,54.4,30.17,WNW,293,5.1,7.6,53,0.02,,,0.02,WUHU216HW,2013-07-05 00:01:00,
2013-07-04 17:06:00,71.1,55.1,30.16,NW,315,4.7,7.6,57,0.04,,,0.04,WUHU216HW,2013-07-05 00:06:00,
2013-07-04 17:11:00,69.8,55.9,30.17,West,270,13.0,13.0,61,0.06,,,0.06,WUHU216HW,2013-07-05 00:11:00,
2013-07-04 17:16:00,68.4,53.0,30.16,WSW,248,3.6,13.0,58,0.08,,,0.08,WUHU216HW,2013-07-05 00:16:00,
2013-07-04 17:21:00,66.8,54.6,30.15,SSE,158,5.1,13.0,65,0.16,,,0.16,WUHU216HW,2013-07-05 00:21:00,
2013-07-04 17:26:00,65.3,54.6,30.14,SW,225,1.6,8.1,68,0.19,,,0.19,WUHU216HW,2013-07-05 00:26:00,
2013-07-04 17:31:00,64.6,55.1,30.14,SE,135,1.6,8.1,71,0.19,,,0.19,WUHU216HW,2013-07-05 00:31:00,
2013-07-04 17:36:00,64.4,55.3,30.14,ESE,113,0.2,1.8,72,0.19,,,0.19,WUHU216HW,2013-07-05 00:36:00,
2013-07-04 17:41:00,64.4,56.0,30.14,NNW,338,1.6,1.6,74,0.19,,,0.19,WUHU216HW,2013-07-05 00:41:00,
2013-07-04 17:46:00,64.4,57.1,30.14,SW,225,0.7,2.7,77,0.19,,,0.19,WUHU216HW,2013-07-05 00:46:00,
2013-07-04 17:51:00,64.4,57.1,30.14,North,0,1.8,4.3,77,0.19,,,0.19,WUHU216HW,2013-07-05 00:51:00,
2013-07-04 17:56:00,64.4,57.4,30.14,West,270,2.5,4.3,78,0.17,,,0.19,WUHU216HW,2013-07-05 00:56:00,
2013-07-04 18:01:00,64.4,57.1,30.14,West,270,3.8,7.8,77,0.16,,,0.19,WUHU216HW,2013-07-05 01:01:00,
2013-07-04 18:06:00,64.3,56.9,30.14,SSW,203,3.6,7.8,77,0.15,,,0.19,WUHU216HW,2013-07-05 01:06:00,
2013-07-04 18:11:00,64.3,56.5,30.14,WSW,248,2.2,5.8,76,0.13,,,0.19,WUHU216HW,2013-07-05 01:11:00,
2013-07-04 18:16:00,64.3,56.9,30.14,WNW,293,2.9,6.9,77,0.10,,,0.19,WUHU216HW,2013-07-05 01:16:00,
2013-07-04 18:21:00,64.3,57.2,30.14,West,270,2.5,6.9,78,0.03,,,0.19,WUHU216HW,2013-07-05 01:21:00,
2013-07-04 18:26:00,64.4,57.8,30.14,South,180,0.0,5.4,79,0.00,,,0.19,WUHU216HW,2013-07-05 01:26:00,
2013-07-04 18:31:00,64.4,58.1,30.14,West,270,2.2,4.7,80,0.00,,,0.19,WUHU216HW,2013-07-05 01:31:00,
2013-07-04 18:36:00,64.8,58.5,30.14,NW,315,3.6,4.7,80,0.00,,,0.19,WUHU216HW,2013-07-05 01:36:00,
2013-07-04 18:41:00,65.0,58.7,30.14,NW,315,3.4,4.7,80,0.00,,,0.19,WUHU216HW,2013-07-05 01:41:00,
2013-07-04 18:46:00,65.2,58.9,30.13,West,270,2.5,4.7,80,0.00,,,0.19,WUHU216HW,2013-07-05 01:46:00,
2013-07-04 18:52:00,65.2,58.5,30.13,WSW,248,3.8,4.0,79,0.00,,,0.19,WUHU216HW,2013-07-05 01:52:00,
2013-07-04 18:57:00,65.2,58.5,30.13,SW,225,1.3,3.8,79,0.00,,,0.19,WUHU216HW,2013-07-05 01:57:00,
2013-07-04 19:02:00,65.2,58.5,30.13,WNW,293,3.6,4.0,79,0.00,,,0.19,WUHU216HW,2013-07-05 02:02:00,
2013-07-04 19:07:00,65.2,58.2,30.13,WSW,248,3.4,4.9,78,0.00,,,0.19,WUHU216HW,2013-07-05 02:07:00,
2013-07-04 19:12:00,65.2,57.8,30.13,West,270,4.0,4.9,77,0.00,,,0.19,WUHU216HW,2013-07-05 02:12:00,
2013-07-04 19:17:00,65.3,58.0,30.13,West,270,3.4,4.7,77,0.00,,,0.19,WUHU216HW,2013-07-05 02:17:00,
2013-07-04 19:21:00,65.3,58.0,30.13,WSW,248,4.3,5.4,77,0.00,,,0.19,WUHU216HW,2013-07-05 02:21:00,
2013-07-04 19:26:00,65.3,57.6,30.14,West,270,1.8,5.4,76,0.00,,,0.19,WUHU216HW,2013-07-05 02:26:00,
2013-07-04 19:31:00,65.2,57.1,30.14,WSW,248,5.6,6.3,75,0.00,,,0.19,WUHU216HW,2013-07-05 02:31:00,
2013-07-04 19:36:00,65.2,56.7,30.14,WSW,248,3.4,6.3,74,0.00,,,0.19,WUHU216HW,2013-07-05 02:36:00,
2013-07-04 19:41:00,65.2,56.7,30.14,WSW,248,1.6,5.8,74,0.00,,,0.19,WUHU216HW,2013-07-05 02:41:00,
2013-07-04 19:47:00,65.2,56.7,30.14,SW,225,1.8,5.8,74,0.00,,,0.19,WUHU216HW,2013-07-05 02:47:00,
2013-07-04 19:51:00,65.2,56.7,30.15,WSW,248,4.0,4.0,74,0.00,,,0.19,WUHU216HW,2013-07-05 02:51:00,
2013-07-04 19:56:00,65.2,56.3,30.15,West,270,1.8,5.4,73,0.00,,,0.19,WUHU216HW,2013-07-05 02:56:00,
2013-07-04 20:01:00,65.2,56.3,30.15,WSW,248,1.3,5.4,73,0.00,,,0.19,WUHU216HW,2013-07-05 03:01:00,
2013-07-04 20:06:00,65.2,56.3,30.16,WSW,248,2.5,4.7,73,0.00,,,0.19,WUHU216HW,2013-07-05 03:06:00,
2013-07-04 20:11:00,65.3,55.7,30.16,WNW,293,6.3,6.3,71,0.00,,,0.19,WUHU216HW,2013-07-05 03:11:00,
2013-07-04 20:16:00,66.2,54.6,30.16,NW,315,7.6,9.2,66,0.00,,,0.19,WUHU216HW,2013-07-05 03:16:00,
2013-07-04 20:21:00,67.0,54.8,30.16,SW,225,4.3,11.0,65,0.00,,,0.19,WUHU216HW,2013-07-05 03:21:00,
2013-07-04 20:26:00,67.5,51.7,30.16,WNW,293,10.3,13.2,57,0.00,,,0.19,WUHU216HW,2013-07-05 03:26:00,
2013-07-04 20:31:00,68.0,50.2,30.16,West,270,7.8,13.2,53,0.00,,,0.19,WUHU216HW,2013-07-05 03:31:00,
2013-07-04 20:36:00,68.4,50.0,30.16,WNW,293,5.4,14.3,52,0.00,,,0.19,WUHU216HW,2013-07-05 03:36:00,
2013-07-04 20:41:00,68.2,48.3,30.16,NW,315,10.3,16.3,49,0.00,,,0.19,WUHU216HW,2013-07-05 03:41:00,
2013-07-04 20:46:00,68.2,49.4,30.16,SW,225,4.9,16.3,51,0.00,,,0.19,WUHU216HW,2013-07-05 03:46:00,
2013-07-04 20:51:00,68.0,48.8,30.16,WNW,293,6.5,14.3,50,0.00,,,0.19,WUHU216HW,2013-07-05 03:51:00,
2013-07-04 20:56:00,67.9,48.6,30.17,NW,315,10.5,14.3,50,0.00,,,0.19,WUHU216HW,2013-07-05 03:56:00,
2013-07-04 21:01:00,67.9,48.6,30.17,NW,315,4.0,12.1,50,0.00,,,0.19,WUHU216HW,2013-07-05 04:01:00,
2013-07-04 21:02:00,67.9,48.1,30.17,West,270,5.1,12.1,49,0.00,,,0.19,WUHU216HW,2013-07-05 04:02:00,
2013-07-04 21:07:00,68.0,48.8,30.18,WNW,293,4.9,9.4,50,0.00,,,0.19,WUHU216HW,2013-07-05 04:07:00,
2013-07-04 21:12:00,68.0,48.8,30.18,North,0,2.5,7.6,50,0.00,,,0.19,WUHU216HW,2013-07-05 04:12:00,
2013-07-04 21:17:00,68.2,49.0,30.19,NE,45,1.1,5.6,50,0.00,,,0.19,WUHU216HW,2013-07-05 04:17:00,
2013-07-04 21:22:00,68.2,50.4,30.19,SW,225,1.8,2.5,53,0.00,,,0.19,WUHU216HW,2013-07-05 04:22:00,
2013-07-04 21:27:00,68.0,50.8,30.19,SSW,203,1.1,2.0,54,0.00,,,0.19,WUHU216HW,2013-07-05 04:27:00,
2013-07-04 21:32:00,67.7,51.8,30.19,SE,135,0.0,2.2,57,0.00,,,0.19,WUHU216HW,2013-07-05 04:32:00,
2013-07-04 21:37:00,67.1,52.4,30.20,South,180,3.1,4.3,59,0.00,,,0.19,WUHU216HW,2013-07-05 04:37:00,
2013-07-04 21:42:00,66.8,52.9,30.20,SSW,203,3.4,4.3,61,0.00,,,0.19,WUHU216HW,2013-07-05 04:42:00,
2013-07-04 21:47:00,66.4,53.5,30.20,SSW,203,0.4,4.3,63,0.00,,,0.19,WUHU216HW,2013-07-05 04:47:00,
2013-07-04 21:52:00,66.1,53.5,30.20,South,180,4.7,4.7,64,0.00,,,0.19,WUHU216HW,2013-07-05 04:52:00,
2013-07-04 21:57:00,65.9,53.4,30.20,SE,135,1.1,4.7,64,0.00,,,0.19,WUHU216HW,2013-07-05 04:57:00,
2013-07-04 22:02:00,65.7,53.2,30.20,SE,135,0.4,4.7,64,0.00,,,0.19,WUHU216HW,2013-07-05 05:02:00,
2013-07-04 22:07:00,65.5,52.6,30.21,West,270,0.4,2.5,63,0.00,,,0.19,WUHU216HW,2013-07-05 05:07:00,
2013-07-04 22:12:00,65.3,53.3,30.21,WNW,293,0.7,2.5,65,0.00,,,0.19,WUHU216HW,2013-07-05 05:12:00,
2013-07-04 22:17:00,65.2,53.1,30.21,WNW,293,0.0,2.9,65,0.00,,,0.19,WUHU216HW,2013-07-05 05:17:00,
2013-07-04 22:22:00,65.2,53.5,30.21,SSW,203,1.1,3.6,66,0.00,,,0.19,WUHU216HW,2013-07-05 05:22:00,
2013-07-04 22:27:00,65.0,53.3,30.21,SE,135,0.0,3.6,66,0.00,,,0.19,WUHU216HW,2013-07-05 05:27:00,
2013-07-04 22:32:00,65.0,52.9,30.21,SSE,158,3.6,3.6,65,0.00,,,0.19,WUHU216HW,2013-07-05 05:32:00,
2013-07-04 22:37:00,64.8,52.8,30.21,WNW,293,1.1,3.6,65,0.00,,,0.19,WUHU216HW,2013-07-05 05:37:00,
2013-07-04 22:42:00,64.8,53.6,30.22,North,0,0.0,3.1,67,0.00,,,0.19,WUHU216HW,2013-07-05 05:42:00,
2013-07-04 22:47:00,64.6,53.4,30.21,SSE,158,1.8,2.5,67,0.00,,,0.19,WUHU216HW,2013-07-05 05:47:00,
2013-07-04 22:52:00,64.8,52.3,30.21,SE,135,0.0,4.7,64,0.00,,,0.19,WUHU216HW,2013-07-05 05:52:00,
2013-07-04 22:57:00,65.2,53.1,30.21,South,180,0.2,4.7,65,0.00,,,0.19,WUHU216HW,2013-07-05 05:57:00,
2013-07-04 23:02:00,65.2,53.5,30.20,SW,225,3.4,5.1,66,0.00,,,0.19,WUHU216HW,2013-07-05 06:02:00,
2013-07-04 23:07:00,65.2,52.7,30.19,South,180,1.1,5.1,64,0.00,,,0.19,WUHU216HW,2013-07-05 06:07:00,
2013-07-04 23:12:00,65.2,53.1,30.18,South,180,3.4,4.0,65,0.00,,,0.19,WUHU216HW,2013-07-05 06:12:00,
2013-07-04 23:17:00,65.2,53.5,30.16,South,180,5.4,5.4,66,0.00,,,0.19,WUHU216HW,2013-07-05 06:17:00,
2013-07-04 23:22:00,65.0,52.5,30.16,NW,315,1.8,6.9,64,0.00,,,0.19,WUHU216HW,2013-07-05 06:22:00,
2013-07-04 23:27:00,65.2,52.2,30.17,NE,45,1.3,6.9,63,0.00,,,0.19,WUHU216HW,2013-07-05 06:27:00,
2013-07-04 23:32:00,65.5,52.6,30.17,West,270,2.5,5.4,63,0.00,,,0.19,WUHU216HW,2013-07-05 06:32:00,
2013-07-04 23:37:00,65.5,52.6,30.17,SSW,203,0.7,3.4,63,0.00,,,0.19,WUHU216HW,2013-07-05 06:37:00,
2013-07-04 23:42:00,65.5,52.1,30.17,WNW,293,2.5,3.6,62,0.00,,,0.19,WUHU216HW,2013-07-05 06:42:00,
2013-07-04 23:47:00,65.7,51.5,30.17,NW,315,3.4,4.9,60,0.00,,,0.19,WUHU216HW,2013-07-05 06:47:00,
2013-07-04 23:52:00,65.9,50.7,30.17,West,270,3.4,7.6,58,0.00,,,0.19,WUHU216HW,2013-07-05 06:52:00,
2013-07-04 23:57:00,66.2,50.6,30.18,WSW,248,5.8,7.6,57,0.00,,,0.19,WUHU216HW,2013-07-05 06:57:00,